Weather History for Sexton Summit, OR

Change the Weather History Date:

Friday, March 29, 2013

  Actual Average Record
Temperature  
Mean Temperature 50 °F -  
Max Temperature 59 °F 44 °F 69 °F (2004)
Min Temperature 42 °F 31 °F 21 °F (2008)
Degree Days  
Heating Degree Days 16    
Moisture  
Dew Point 42 °F    
Average Humidity 83    
Maximum Humidity 100    
Minimum Humidity 47    
Precipitation  
Precipitation 0.05 in - - ()
Sea Level Pressure  
Sea Level Pressure 30.13 in    
Wind  
Wind Speed 4 mph (ESE)    
Max Wind Speed 9 mph    
Max Gust Speed -    
Visibility 5 miles    
Events Fog , Rain    
Averages and records for this station are not official NWS values.
T = Trace of Precipitation, MM = Missing Value Source: NWS Daily Summary

Daily Weather History Graph

Daily Weather History Graph

Search for Another Location

Airport:

Trip Planner

Search our weather history database for the weather conditions in past years. The results will help you decide how hot, cold, wet, or windy it might be!

Date:

Astronomy

Mar. 29, 2013 Rise Set
Actual Time 7:00 AM PDT 7:36 PM PDT
Civil Twilight 6:32 AM PDT 8:04 PM PDT
Nautical Twilight 5:58 AM PDT 8:38 PM PDT
Astronomical Twilight 5:23 AM PDT 9:13 PM PDT
Moon 10:47 PM PDT (3/29) 8:09 AM PDT (3/29)
Length of Visible Light 13h 32m
Length of Day
12h 36m
Waning Gibbous, 93% of the Moon is Illuminated
Mar 29
Waning Gibbous
Apr 2
Last Quarter
Apr 10
New
Apr 18
First Quarter
Apr 25
Full

Hourly Weather History & Observations

Time (PDT) Temp. Windchill Dew Point Humidity Pressure Visibility Wind Dir Wind Speed Gust Speed Precip Events Conditions
12:06 AM 42.8 °F - 41.0 °F 93% 30.12 in 2.5 mi Calm Calm - N/A   Overcast
12:09 AM 42.8 °F - 41.0 °F 93% 30.12 in 1.0 mi Calm Calm - 0.00 in Rain Light Rain
12:16 AM 42.8 °F - 41.0 °F 93% 30.12 in 0.5 mi Calm Calm - 0.00 in Fog , Rain Light Rain
12:28 AM 42.8 °F - 42.8 °F 100% 30.12 in 0.2 mi Calm Calm - 0.00 in Fog , Rain Light Rain
12:48 AM 42.8 °F - 42.8 °F 100% 30.12 in 0.2 mi Calm Calm - 0.02 in Fog , Rain Light Rain
12:56 AM 43.0 °F - 42.1 °F 97% 30.11 in 0.2 mi Calm Calm - 0.03 in Fog , Rain Light Rain
1:34 AM 42.8 °F 41.1 °F 41.0 °F 93% 30.12 in 0.8 mi SE 3.5 mph - 0.02 in   Overcast
1:56 AM 42.1 °F 39.2 °F 41.0 °F 96% 30.11 in 1.5 mi ESE 4.6 mph - 0.02 in   Overcast
1:58 AM 42.8 °F 40.1 °F 41.0 °F 93% 30.12 in 4.0 mi ESE 4.6 mph - N/A   Overcast
2:56 AM 42.1 °F 37.7 °F 41.0 °F 96% 30.11 in 10.0 mi ESE 6.9 mph - N/A   Overcast
3:31 AM 42.8 °F 38.6 °F 41.0 °F 93% 30.12 in 1.8 mi SE 6.9 mph - N/A   Overcast
3:34 AM 42.8 °F 39.3 °F 41.0 °F 93% 30.12 in 0.8 mi SE 5.8 mph - N/A   Overcast
3:43 AM 42.8 °F 38.6 °F 41.0 °F 93% 30.12 in 0.2 mi ESE 6.9 mph - N/A Fog Fog
3:52 AM 42.8 °F 38.0 °F 41.0 °F 93% 30.12 in 0.2 mi ESE 8.1 mph - N/A Fog Fog
3:56 AM 42.1 °F 36.6 °F 41.0 °F 96% 30.10 in 0.2 mi ESE 9.2 mph - N/A Fog Fog
4:06 AM 42.8 °F 37.5 °F 41.0 °F 93% 30.12 in 0.5 mi ESE 9.2 mph - N/A Fog Fog
4:11 AM 42.8 °F 38.6 °F 41.0 °F 93% 30.12 in 0.2 mi ESE 6.9 mph - N/A Fog Fog
4:56 AM 42.1 °F 37.1 °F 41.0 °F 96% 30.10 in 0.2 mi ESE 8.1 mph - N/A Fog Fog
5:17 AM 42.8 °F 39.3 °F 41.0 °F 93% 30.12 in 0.2 mi ESE 5.8 mph - N/A Fog Fog
5:48 AM 42.8 °F 40.1 °F 41.0 °F 93% 30.13 in 0.2 mi ESE 4.6 mph - N/A Fog Fog
5:56 AM 42.1 °F 37.7 °F 41.0 °F 96% 30.12 in 0.2 mi ESE 6.9 mph - N/A Fog Fog
6:06 AM 42.8 °F 38.0 °F 41.0 °F 93% 30.13 in 1.0 mi SE 8.1 mph - N/A   Overcast
6:09 AM 42.8 °F 38.6 °F 41.0 °F 93% 30.13 in 1.5 mi ESE 6.9 mph - N/A   Overcast
6:16 AM 42.8 °F 37.5 °F 41.0 °F 93% 30.13 in 1.0 mi ESE 9.2 mph - N/A   Overcast
6:24 AM 42.8 °F 38.0 °F 41.0 °F 93% 30.13 in 0.5 mi ESE 8.1 mph - N/A Fog Fog
6:56 AM 42.1 °F 37.7 °F 41.0 °F 96% 30.15 in 0.8 mi ESE 6.9 mph - N/A   Overcast
7:03 AM 42.8 °F 40.1 °F 41.0 °F 93% 30.14 in 1.0 mi East 4.6 mph - N/A   Overcast
7:08 AM 42.8 °F 38.6 °F 41.0 °F 93% 30.14 in 2.0 mi ESE 6.9 mph - N/A   Mostly Cloudy
7:16 AM 42.8 °F 38.6 °F 41.0 °F 93% 30.15 in 6.0 mi ESE 6.9 mph - N/A   Scattered Clouds
7:56 AM 43.0 °F 38.2 °F 41.0 °F 93% 30.16 in 10.0 mi ESE 8.1 mph - N/A   Clear
8:56 AM 45.0 °F 41.2 °F 43.0 °F 93% 30.15 in 10.0 mi ESE 6.9 mph - N/A   Clear
9:56 AM 48.9 °F - 44.1 °F 83% 30.15 in 10.0 mi ESE 4.6 mph - N/A   Clear
10:56 AM 52.0 °F - 44.1 °F 74% 30.15 in 10.0 mi ESE 6.9 mph - N/A   Clear
11:56 AM 54.0 °F - 45.0 °F 72% 30.14 in 10.0 mi ESE 6.9 mph - N/A   Clear
12:56 PM 55.9 °F - 45.0 °F 67% 30.13 in 10.0 mi Variable 4.6 mph - N/A   Clear
1:56 PM 57.0 °F - 46.0 °F 67% 30.13 in 10.0 mi Calm Calm - 0.00 in   Clear
2:40 PM 57.2 °F - 46.4 °F 67% 30.16 in 10.0 mi Calm Calm - N/A   Mostly Cloudy
2:49 PM 55.4 °F - 44.6 °F 67% 30.16 in 10.0 mi Calm Calm - N/A   Scattered Clouds
2:56 PM 55.9 °F - 45.0 °F 67% 30.13 in 10.0 mi Calm Calm - N/A   Scattered Clouds
3:12 PM 57.2 °F - 44.6 °F 63% 30.16 in 10.0 mi Calm Calm - N/A   Mostly Cloudy
3:56 PM 55.9 °F - 42.1 °F 60% 30.12 in 10.0 mi NNW 4.6 mph - N/A   Mostly Cloudy
4:08 PM 57.2 °F - 42.8 °F 59% 30.15 in 10.0 mi NW 4.6 mph - N/A   Scattered Clouds
4:56 PM 57.9 °F - 41.0 °F 53% 30.11 in 10.0 mi Calm Calm - N/A   Clear
5:56 PM 55.9 °F - 36.0 °F 47% 30.11 in 10.0 mi NNW 4.6 mph - N/A   Clear
6:56 PM 54.0 °F - 37.9 °F 55% 30.11 in 10.0 mi NNW 3.5 mph - N/A   Clear
7:56 PM 52.0 °F - 42.1 °F 69% 30.11 in 10.0 mi North 6.9 mph - N/A   Clear
8:56 PM 53.1 °F - 42.1 °F 66% 30.12 in 10.0 mi NNE 8.1 mph - N/A   Clear
9:56 PM 52.0 °F - 42.1 °F 69% 30.12 in 10.0 mi North 9.2 mph - N/A   Clear
10:56 PM 53.1 °F - 39.0 °F 59% 30.10 in 10.0 mi NNE 6.9 mph - N/A   Clear
11:56 PM 52.0 °F - 39.0 °F 61% 30.09 in 10.0 mi ENE 5.8 mph - N/A   Clear